Regional Weather Roundup
Issued by NWS

Home | Current Version | Previous Version | Text Only | Print | Product List | Glossary Off
Versions: 1 2 3 4 5 6 7 8 9 10 11 12 13 14 15 16 17 18 19 20 21 22 23 24 25 26 27 28 29 30 31 32 33 34 35 36 37 38 39 40 41 42 43 44 45 46 47 48 49 50

000
ASUS45 KSLC 030710
RWRUT

UTAH REGIONAL WEATHER ROUNDUP
NATIONAL WEATHER SERVICE SALT LAKE CITY UT
100 AM MDT SUN MAY 03 2015

UTZ001>011-023>025-030800-

NORTHERN UTAH

CITY           SKY/WX    TMP DP  RH WIND       PRES   REMARKS
BRIGHAM CITY   CLOUDY    66  33  28 SE8       29.88S
HILL AFB       MOCLDY    63  35  36 VRB2      29.90S
LOGAN          MOCLDY    60  39  45 E8        29.88S
OGDEN          CLOUDY    64  38  38 E3        29.88S
PROVO AIRPORT  MOCLDY    59  39  47 SE5       29.90R
SALT LAKE CITY MOCLDY    62  40  44 S6        29.87F
VERNAL         CLEAR     57  33  40 N9        29.95R
WENDOVER       CLOUDY    66  34  30 E9        29.87S
HEBER CITY     MOCLDY    48  36  61 E6        29.95R
WEST JORDAN    CLEAR     57  39  51 SW5       29.90S

$$

UTZ012>022-026-027-030800-

SOUTHERN/CENTRAL UTAH

CITY           SKY/WX    TMP DP  RH WIND       PRES   REMARKS
BLANDING       MOCLDY    59  30  34 CALM      30.09R
BRYCE CANYON   CLOUDY    42  25  50 CALM      30.12R
CEDAR CITY     PTCLDY    59  25  27 S3        29.98R
DELTA          MOCLDY    62  27  26 SE9       29.90S
HANKSVILLE     MOCLDY    64  21  19 CALM      29.91R
MILFORD        PTCLDY    62  24  23 S13       29.93R
MOAB/CYNLANDS  PTCLDY    62  27  26 CALM      29.88R
PRICE          PTCLDY    54  22  28 NE7       29.95R
ST GEORGE      PTSUNNY   72  28  20 E8        29.85S
KANAB          PTCLDY    50  32  50 N6        30.01S

$$

REGIONAL REPORTS     COLORADO/ARIZONA

CITY           SKY/WX    TMP DP  RH WIND       PRES   REMARKS
CRAIG, CO      PTCLDY    46  39  76 NE9       30.04R
GRAND JUNCTION MOCLDY    63  35  35 E6        29.92R
RIFLE          PTCLDY    51  37  58 SE8       30.02R
MONTROSE       MOCLDY    66  24  20 S6        30.01R
CORTEZ         CLEAR     49  33  54 E6        30.05S
PAGE, AZ       PTCLDY    70  29  21 S7        29.93R
GRAND CANYON   PTCLDY    36  28  73 CALM      30.10R
KINGMAN        CLEAR     67  35  30 S5        29.89S
FLAGSTAFF      MOCLDY    45  32  60 CALM      30.13S

$$

REGIONAL REPORTS    NEVADA/IDAHO/WYOMING

CITY           SKY/WX    TMP DP  RH WIND       PRES   REMARKS
LAS VEGAS, NV  CLEAR     80  28  15 SW13      29.75R
ELY            CLOUDY    55  19  24 SE7       30.00R
ELKO           CLOUDY    63  33  32 SW17G28   29.92R
POCATELLO, ID  CLEAR     57  30  35 S9        29.87S
BURLEY         MOCLDY    51  39  63 S10       29.85S
EVANSTON, WY   CLOUDY    51  32  48 E6        30.04S
ROCK SPRINGS   MOCLDY    47  38  71 S7        30.01F
KEMMERER       CLOUDY    48  32  53 S3        30.04F

$$



USA.gov is the U.S. government's official web portal to all federal, state and local government web resources and services.